TimeCDT,TemperatureF,Dew PointF,Humidity,Sea Level PressureIn,VisibilityMPH,Wind Direction,Wind SpeedMPH,Gust SpeedMPH,PrecipitationIn,Events,Conditions,WindDirDegrees,DateUTC
12:58 AM,83.3,74.3,74,30.04,10.0,Calm,Calm,-,N/A,,Clear,0,2013-08-05 05:58:00
1:58 AM,82.8,77.2,83,30.02,10.0,WSW,5.8,-,N/A,,Clear,240,2013-08-05 06:58:00
2:58 AM,82.8,75.6,79,30.01,10.0,West,4.6,-,N/A,,Clear,260,2013-08-05 07:58:00
3:58 AM,80.8,75.2,83,30.01,10.0,Variable,2.3,-,N/A,,Clear,0,2013-08-05 08:58:00
4:58 AM,79.3,74.1,84,30.01,10.0,Calm,Calm,-,N/A,,Clear,0,2013-08-05 09:58:00
5:58 AM,78.8,73.6,84,30.02,10.0,Variable,1.2,-,N/A,,Clear,0,2013-08-05 10:58:00
6:58 AM,78.4,73.0,83,30.04,10.0,North,1.2,-,N/A,,Clear,350,2013-08-05 11:58:00
7:58 AM,81.5,73.8,77,30.05,10.0,Variable,1.2,-,N/A,,Clear,0,2013-08-05 12:58:00
8:58 AM,83.8,74.8,74,30.05,10.0,Variable,2.3,-,N/A,,Clear,0,2013-08-05 13:58:00
9:58 AM,86.5,76.1,71,30.06,10.0,Variable,1.2,-,N/A,,Clear,0,2013-08-05 14:58:00
10:58 AM,89.4,76.5,65,30.05,10.0,Variable,3.5,-,N/A,,Clear,0,2013-08-05 15:58:00
11:58 AM,91.2,75.9,61,30.04,10.0,Variable,3.5,-,N/A,,Clear,0,2013-08-05 16:58:00
12:58 PM,93.4,75.7,56,30.02,10.0,West,4.6,-,N/A,,Partly Cloudy,280,2013-08-05 17:58:00
1:58 PM,93.2,77.9,61,30.00,10.0,SW,6.9,-,N/A,,Scattered Clouds,220,2013-08-05 18:58:00
2:58 PM,93.6,78.8,62,29.96,10.0,SW,16.1,-,N/A,,Partly Cloudy,230,2013-08-05 19:58:00
3:31 PM,91.4,78.8,66,29.94,10.0,SW,13.8,-,N/A,Thunderstorm,Thunderstorm,220,2013-08-05 20:31:00
3:58 PM,92.3,79.0,65,29.94,10.0,SW,18.4,24.2,N/A,Thunderstorm,Thunderstorm,230,2013-08-05 20:58:00
4:15 PM,86.0,75.2,70,29.98,0.5,ENE,29.9,39.1,N/A,Rain-Thunderstorm,Heavy Thunderstorms and Rain,70,2013-08-05 21:15:00
4:20 PM,80.6,75.2,84,29.97,0.5,East,26.5,39.1,N/A,Rain-Thunderstorm,Heavy Thunderstorms and Rain,80,2013-08-05 21:20:00
4:25 PM,78.8,73.4,83,29.99,0.5,East,25.3,39.1,N/A,Fog-Rain-Thunderstorm,Heavy Thunderstorms and Rain,90,2013-08-05 21:25:00
4:35 PM,77.0,73.4,89,29.99,0.2,East,23.0,39.1,N/A,Fog-Rain-Thunderstorm,Heavy Thunderstorms and Rain,90,2013-08-05 21:35:00
4:40 PM,75.2,73.4,94,30.02,0.2,East,18.4,34.5,N/A,Fog-Rain-Thunderstorm,Heavy Thunderstorms and Rain,90,2013-08-05 21:40:00
4:51 PM,77.0,73.4,89,30.01,0.2,SE,13.8,27.6,N/A,Fog-Rain-Thunderstorm,Heavy Thunderstorms and Rain,130,2013-08-05 21:51:00
4:56 PM,77.0,73.4,89,30.00,4.0,South,12.7,-,N/A,Rain-Thunderstorm,Light Thunderstorms and Rain,170,2013-08-05 21:56:00
4:59 PM,77.0,73.4,89,30.01,5.0,South,9.2,-,2.10,Rain-Thunderstorm,Light Thunderstorms and Rain,180,2013-08-05 21:59:00
5:07 PM,77.0,73.4,89,29.98,6.0,Variable,6.9,-,N/A,Rain-Thunderstorm,Light Thunderstorms and Rain,0,2013-08-05 22:07:00
5:17 PM,78.8,73.4,83,29.99,10.0,SSE,4.6,-,N/A,Rain-Thunderstorm,Light Thunderstorms and Rain,160,2013-08-05 22:17:00
5:19 PM,78.8,73.4,83,30.00,10.0,South,5.8,-,N/A,Thunderstorm,Thunderstorm,180,2013-08-05 22:19:00
5:30 PM,78.8,73.4,83,30.00,10.0,WSW,12.7,19.6,N/A,Thunderstorm,Mostly Cloudy,240,2013-08-05 22:30:00
5:36 PM,78.8,75.2,89,30.00,10.0,WSW,12.7,19.6,N/A,Thunderstorm,Thunderstorm,250,2013-08-05 22:36:00
5:54 PM,78.8,71.6,78,29.99,10.0,WSW,6.9,19.6,N/A,Thunderstorm,Mostly Cloudy,250,2013-08-05 22:54:00
5:58 PM,78.4,72.3,81,30.00,10.0,WSW,9.2,19.6,0.06,Thunderstorm,Mostly Cloudy,240,2013-08-05 22:58:00
6:53 PM,78.8,73.4,83,30.00,10.0,Variable,3.5,-,N/A,Thunderstorm,Thunderstorm,0,2013-08-05 23:53:00
6:58 PM,78.8,74.3,86,30.01,10.0,NNE,3.5,-,N/A,Thunderstorm,Mostly Cloudy,20,2013-08-05 23:58:00
7:01 PM,78.8,73.4,83,30.00,10.0,NNE,4.6,-,N/A,Thunderstorm,Thunderstorm,30,2013-08-06 00:01:00
7:08 PM,78.8,75.2,89,30.00,10.0,NE,4.6,-,N/A,,Scattered Clouds,40,2013-08-06 00:08:00
7:58 PM,78.6,74.8,88,30.01,10.0,NE,4.6,-,N/A,,Partly Cloudy,50,2013-08-06 00:58:00
8:58 PM,77.7,75.4,92,30.00,10.0,ENE,6.9,-,N/A,,Clear,60,2013-08-06 01:58:00
9:58 PM,78.3,74.8,89,30.01,10.0,East,4.6,-,N/A,,Clear,80,2013-08-06 02:58:00
10:58 PM,78.3,74.5,88,30.00,10.0,Calm,Calm,-,N/A,,Clear,0,2013-08-06 03:58:00
11:58 PM,77.0,73.9,90,29.98,10.0,SW,5.8,-,N/A,,Clear,220,2013-08-06 04:58:00